Location: Wildcat Hills Observatory
(41.6350°N, 103.6812°W)
Time: 03:59:19
(UTC-06:00)

Cosmos 2084 - Pass Details

Date: 23 June 2018
Orbit: 509 x 675 km, 62.8° (Epoch: 20 July)

Event Time Altitude Azimuth Distance (km) Brightness Sun altitude
Rises 21:43:47 0° 318° (NW) 2,626 9.0 -11.1°
Reaches altitude 10° 21:46:00 10° 312° (NW) 1,731 7.4 -11.4°
Maximum altitude 21:49:42 45° 239° (WSW) 698 3.9 -11.8°
Enters shadow 21:52:40 15° 170° (S) 1,455 5.0 -12.2°
